STARLINK-1170, 45073

Orbit data source: Space-Track

STARLINK-1170, 45073 is a payload satellite owned by SpaceX/Seattle (US) in LEO that was launched on Wed, 29 Jan 2020 UTC via an FALCON 9 launch vehicle from the Air Force Eastern Test Range (AFETR). Payloads include a variety of satellites, spacecraft, and rockets equipped with specific instruments for various scientific and technological missions. These include communications satellites like Starlink; space stations such as the ISS; scientific satellites like the Hubble; Earth observation satellites from companies like Planet Labs, Umbra, and HawkEye 360; GPS; miniature CubeSats for education and research; and military/defense satellites.

Loading next visibility...
STARLINK-1170 details
Identifier
45073, 2020-006AF
Orbit
LEO
Last TLE update14 hours ago
Origin
Flag of USSpaceX/Seattle (US)
ManufacturerSpaceX/Seattle
MissionOperational Commercial Communications
Bus & MotorSTARLINK, Unknown motor
Mass260 kg wet, ~248 kg dry
Launch date (UTC)
2020-01-29 (5 years ago)
Launch vehicle
FALCON 9
Launch site
Air Force Eastern Test Range (AFETR)
Object type
Payload
Rocket body
Debris
Shape & HBRBox + 1 Pan, 8.86 m
Radar Cross Section13.562 m², Large (>1 m²)

Expand to show TLE details & history

TLE from 14 hours ago
0 STARLINK-1170
1 45073U 20006AF  25023.92803119  .00020541  00000-0  13962-2 0  9997
2 45073  53.0541 306.1083 0002079 117.6844 242.4356 15.06337026275316
Epoch: 2025-01-23T22:16Z
Definitive object data (Epoch: 2025-01-23T22:16:21.894Z)
Latitude-0.00004°
Longitude-151.48148°
Altitude548.95 km
Speed7.588 km/s
True Right ascension20h 24m 25s
True Declination0° 00' 00"
Sunlit
Object was in daylight at TLE epoch
Visualization TLE readout
Latitude10.19378°
Longitude-146.44382°
Altitude547.872 km
Speed7.59 km/s
Apparent Right ascension22h 49m 58s
Apparent Declination-17° 13' 26"
Sunlit
Object is in daylight
Visualization observer readout
Local Sidereal Time13:55:30
Azimuth74.2° E
Elevation-44.056°
Doppler factor1
Orbital elements
Apogee altitude549.115 km
Perigee altitude546.235 km
Semi-major axis6,925.812 km
Eccentricity0.0002079
Inclination53.0541°
RAAN306.1083°
Arg. of periapsis117.6844°
True anomaly242.41448°
Mean anomaly242.4356°
Eccentric anomaly242.42504°
Mean motion3.76563 °/min
BSTAR0.0013962
Orbital period95.6 mins
Loading maneuver chart data...
Loading historical data...
Loading historical data...
Loading historical data...
Loading historical data...
Loading historical data...
Loading historical data...
Loading historical data...

STARLINK-1170 Visibility forecast

Observer location: undefined°, undefined

Span
Click to sort rows by Start time (UTC) header in descending order
Start Az.
Max El. time (UTC)
Max El. Az.
Max El.
End time (UTC)
End Az.
6 mins2025-01-24 20:43:37.296Z198.676° SSW2025-01-24 20:46:37.296Z133.929° SE33.141°2025-01-24 20:49:37.296Z68.229° E
6 mins2025-01-24 22:23:37.296Z274.747° WNW2025-01-24 22:26:37.296Z343.49° N27.789°2025-01-24 22:29:37.296Z33.712° NE
6 mins2025-01-25 03:25:37.296Z329.965° NNW2025-01-25 03:27:37.296Z14.853° NNE33.988°2025-01-25 03:31:37.296Z105.091° ESE
5 mins2025-01-25 05:05:37.296Z269.051° W2025-01-25 05:07:37.296Z223.773° SW24.141°2025-01-25 05:10:37.296Z173.641° S
|